Other Public Products
Issued by NWS Grand Forks, ND

Home | Current Version | Previous Version | Graphics & Text | Print | Product List | Glossary On
Versions: 1 2 3 4 5 6 7 8 9 10 11 12 13 14 15 16 17 18 19 20 21 22 23 24 25 26 27 28 29 30 31 32 33 34 35 36 37 38 39 40 41 42 43 44 45 46 47 48 49 50
000
FPUS83 KFGF 020210
OPUFGF
PRAIRIE TO PINES WEATHER ROUNDUP
NATIONAL WEATHER SERVICE EASTERN NORTH DAKOTA/GRAND FORKS ND
900 PM CDT SAT AUG 01 2015

 **SATELLITE DATA USED TO AUGMENT SKY COVER AT AUTOMATED STATIONS**
 *****  WEATHER ACROSS EASTERN NORTH DAKOTA  *****

CITY           SKY/WX    TMP DP  RH WIND       PRES   REMARKS
GRAND FORKS    PTCLDY    76  64  66 SW6       29.68F
GRAND FORKS AF CLEAR     74  64  71 SW6       29.69F
GRAND CITY NWS NOT AVBL
BUXTON         NOT AVBL
DEVILS LAKE    CLEAR     79  59  50 S7        29.69F
FARGO          CLEAR     77  65  66 SE5       29.71F
WAHPETON ARPT  CLEAR     77  68  73 CALM      29.72S
$$

 *****  WEATHER ACROSS CENTRAL AND WESTERN NORTH DAKOTA  *****

CITY           SKY/WX    TMP DP  RH WIND       PRES   REMARKS
JAMESTOWN      CLEAR     76  68  76 E3        29.74S
BISMARCK       CLEAR     76  63  64 S7        29.72F
MINOT          PTCLDY    82  56  40 SE3       29.69S
MINOT AFB      PTCLDY    81  62  52 S6        29.67F
GARRISON         N/A     73  65  75 S8        29.70F
WILLISTON      CLEAR     86  50  28 NW22G30   29.77R
DICKINSON      CLEAR     79  45  29 NW9       29.78R
HETTINGER      CLEAR     80  45  28 S7        29.81F
$$

 *****  OTHER OBSERVATIONS NORTHEAST NORTH DAKOTA  *****

CITY           SKY/WX    TMP DP  RH WIND       PRES   REMARKS
WALHALLA       FAIR      75  61  60 MISG      29.68S
LANGDON        FAIR      72  64  78 SW5       29.73S
CAVALIER       FAIR      77  63  61 SW8       29.68F
GRAFTON        FAIR      77  66  69 W3        29.69F
CANDO          NOT AVBL
FORT TOTTEN      N/A     77  60  54 SE6       29.95S
ROLLA            N/A     72  68  88 NE3       29.74R
RUGBY          NOT AVBL
 ***** THE ABOVE OBSERVATIONS ARE NON NWS ARE NOT QUALITY
        CONTROLLED AND MAY MIS-REPORT RAIN FOR SNOW...
$$

 *****  OTHER OBSERVATIONS SOUTHEAST NORTH DAKOTA *****

CITY           SKY/WX    TMP DP  RH WIND       PRES   REMARKS
COOPERSTOWN    NOT AVBL
VALLEY CITY    FAIR      77  68  73 SE3       29.74F
OAKES            N/A     77  73  88 NE6       29.73S
GWINNER        FAIR      79  73  83 NE3       29.74R
SHEYENNE NWR     N/A     80  71  74 CALM      29.95S
BUFFALO        NOT AVBL
WYNDMERE         N/A     77  72  83 CALM        N/A
 ***** THE ABOVE OBSERVATIONS ARE NON NWS ARE NOT QUALITY
       CONTROLLED AND MAY MIS-REPORT RAIN FOR SNOW...
$$

  *****  WEATHER ACROSS NORTHERN MINNESOTA  *****

CITY           SKY/WX    TMP DP  RH WIND       PRES   REMARKS
FLAG ISLAND      N/A     75  55  50 W3        29.67F HAZE
WARROAD        PTCLDY    72  64  78 SW3       29.69F
ROSEAU         PTCLDY    72  63  73 SW3       29.68F
HALLOCK        PTCLDY    73  63  68 SW8       29.67S
THF RVR FALLS  PTCLDY    72  63  73 S5        29.71F
HALSTAD        NOT AVBL
FOSSTON        CLEAR     70  61  73 CALM      29.74F
BAUDETTE       PTCLDY    72  57  59 W5        29.70F
WASKISH        MOCLDY    72  63  73 SW7       29.72F
CROOKSTON      CLEAR     73  64  73 S7        29.71S
$$
  *****  WEATHER ACROSS CENTRAL AND WEST MINNESOTA  *****

CITY           SKY/WX    TMP DP  RH WIND       PRES   REMARKS
BEMIDJI        PTCLDY    72  59  62 SW3       29.75S
PARK RAPIDS    CLEAR     75  62  64 CALM      29.76F
WADENA         CLEAR     73  64  73 CALM      29.76S
DETROIT LAKES  CLEAR     77  63  61 CALM      29.77S
MOORHEAD       CLEAR     79  66  65 SE3       29.73S
FERGUS FALLS   CLOUDY    79  70  73 CALM      29.72S
ELBOW LAKE     FAIR      76  71  85 S6        29.73F
MORRIS MN      CLEAR     75  68  78 S6        29.74S
STAPLES        PTCLDY    75  63  64 CALM      29.77S
WHEATON        CLEAR     75  64  69 S3        29.73F
$$
  *****  WEATHER ELSEWHERE ACROSS MINNESOTA  *****

CITY           SKY/WX    TMP DP  RH WIND       PRES   REMARKS
DULUTH         PTCLDY    71  56  58 W8        29.76F
INTRNTL FALLS  PTCLDY    70  56  61 W3        29.71R
ELY            PTCLDY    70  52  52 CALM      29.74S
CLOQUET        CLEAR     72  55  56 SW7       29.76F
BRAINERD       PTCLDY    72  63  73 SE3       29.77F
HIBBING        PTCLDY    64  57  78 CALM      29.75F
ALEXANDRIA     CLEAR     77  67  71 S8        29.77F
SAINT CLOUD    CLEAR     74  68  81 SE5       29.76F
MINNEAPOLIS    PTCLDY    82  68  62 S9        29.78F
$$

  *****  WEATHER ACROSS SOUTH DAKOTA  *****

CITY           SKY/WX    TMP DP  RH WIND       PRES   REMARKS
SIOUX FALLS    PTCLDY    79  64  60 SW10      29.84S
BROOKINGS      CLOUDY    75  63  64 S8        29.82F
WATERTOWN      CLEAR     76  65  68 S9        29.78S
HURON          CLEAR     83  64  52 SW9       29.77S
SISSETON         N/A     76  68  76 S6        29.71F
ABERDEEN       CLEAR     81  67  62 CALM      29.73S
MITCHELL       PTCLDY    82  66  58 SW7       29.80F
PIERRE         CLEAR     79  50  36 N8        29.80S
MOBRIDGE       CLEAR     83  58  42 E8        29.75F
RAPID CITY     CLEAR     79  59  50 S7        29.91S
$$

  *****  SOME WEATHER IN NEARBY STATES *****

CITY           SKY/WX    TMP DP  RH WIND       PRES   REMARKS
GLASGOW MT     CLEAR     84  51  31 NE13      29.81R
GREAT FALLS MT CLEAR     90  22   8 W8        29.90S
CHEYENNE WY    PTCLDY    79  46  31 E5        30.14R
SCOTTSBLUFF NE CLEAR     76  56  49 SE13      30.00R
OMAHA NE       PTCLDY    79  71  76 S8        29.89S
DES MOINES IA  PTCLDY    80  72  76 S7        29.89F
DAVENPORT IA   MOCLDY    75  68  78 SW6       29.92F
CHICAGO IL     MOCLDY    79  62  56 W10       29.90R
EAU CLAIRE WI  CLEAR     73  61  65 S3        29.80F
LA CROSSE WI   CLEAR     77  66  68 S6        29.82F
$$

  *****  SOME NATIONAL WEATHER *****

CITY           SKY/WX    TMP DP  RH WIND       PRES   REMARKS
LA GUARDIA NY  PTCLDY    81  58  45 NW9       29.84R
RALEIGH NC     PTCLDY    78  65  63 CALM      29.92R
ATLANTA GA     PTCLDY    83  62  49 E3        29.96R
NEW ORLEANS LA CLEAR     86  61  42 N6        29.88S
OKLAHOMA CITY  PTCLDY    77  70  79 S3        29.98R
ALBUQUERQUE NM CLOUDY    80  53  39 N14       30.14R
SALT LAKE CITY MOCLDY    90  31  12 W8        29.98F
LOS ANGELES CA MOCLDY    71  65  81 W12       29.90R
BOISE ID       SUNNY    100  34  10 N6        29.87F HX  94
SEATTLE WA     MOSUNNY   88  44  21 N13       29.92F
$$

*** WEATHER ACROSS MANITOBA...SASKATCHEWAN AND ONTARIO ***
                ***ONTARIO***

CITY           SKY/WX    TMP DP  RH WIND       PRES   REMARKS
GERALDTON      MOCLDY    57  55  94 W8        29.65R
THUNDER BAY    MOCLDY    66  57  72 VRB2      29.67F
SIOUX LOOKOUT  CLOUDY    61  59  94 NW5       29.67F
TORONTO        PTCLDY    72  52  49 W8        29.85R
BIG TROUT LK   LGT RAIN  55  52  88 NW13G18   29.49S
PICKLE LAKE    MOCLDY    59  54  82 W8        29.59F
DRYDEN         PTCLDY    66  55  68 W5        29.67F
KENORA         MOCLDY    68  61  77 NW3       29.69F
$$
                *** MANITOBA***

CITY           SKY/WX    TMP DP  RH WIND       PRES   REMARKS
BRANDON        MOCLDY    70  59  68 N14       29.73R THUNDER
DAUPHIN        MOCLDY    68  61  77 N8        29.73S
ISLAND LAKE    MOCLDY    63  52  67 NW12G22   29.61R
PILOT MOUND      N/A     72  63  73 SW3         N/A
THE PAS        PTCLDY    68  46  45 NW13      29.73S
THOMPSON       LGT RAIN  57  48  72 N8        29.66S
WINNIPEG       MOCLDY    72  64  78 N6        29.67F
LYNN LAKE      MOCLDY    59  43  55 N17G26    29.75R
CHURCHILL      LGT RAIN  46  45  93 N22       29.53S FOG
GILLAM         LGT RAIN  52  48  87 NW18      29.55S
$$
                ***SASKATCHEWAN***

CITY           SKY/WX    TMP DP  RH WIND       PRES   REMARKS
ESTEVAN        PTCLDY    75  59  57 N17G23    29.77R
KINDERSLEY     PTCLDY    72  52  49 N8        29.94R
LLOYDMINSTER   MOCLDY    68  52  56 N6        29.95R
PRINCE ALBERT  PTCLDY    66  57  72 NW7       29.84R
REGINA         PTCLDY    72  54  53 N10       29.87R


USA.gov is the U.S. government's official web portal to all federal, state and local government web resources and services.